www.pogodaiklimat.ru

Погода и климат >> Архив погоды >> Мексика >> Sombrerete


ПОГОДА в Sombrerete

  • Прогноз погоды в Sombrerete
  • Монитор погоды в Sombrerete
  • Климат города

АРХИВ ПОГОДЫ в Sombrerete

Время (UTC), дата Ветер
(напр.,м/с)
 
Видим.   Явления Облачность Т
(С)
Тd
(С)
f
(%)
Тe
(С)
Тes
(С)
Комфортность P
(гПа)
Po
(гПа)
Тmin
(С)
Tmax
(С)
R
(мм)
R24
(мм)
S
(см)
12 11.10 штиль 0 16 км ясно +9.7 +6.8 82 +9 +9 1010.7 769.5 +8.9 +25.9
15 11.10 Ю 2 16 км 3/0
[Ci fib]
+16.4 +9.4 63 +17 +20 1013.0 770.5
18 11.10 ЮЗ 2 16 км 1/0 1500 м
[As trans]
+22.8 +7.4 37 +24 +38 комфорт 1010.8 770.1 +8.8 +22.8
21 11.10 З 3 16 км 5/0 2000 м
[As trans]
+25.6 +3.7 24 +25 +31 комфорт 1006.2 768.6
00 12.10 ЮЗ 1 16 км 8/0 2000 м
[As trans]
+22.1 +2.3 27 +22 +22 комфорт 1003.1 768.6 +8.8 +25.8
03 12.10 штиль 0 16 км 4/0 2000 м
[As trans]
+15.1 +6.3 56 +15 +15 1003.4 769.5
06 12.10 штиль 0 16 км ясно +12.4 +7.9 74 +12 +12 1005.9 770.3 +25.8
12 12.10 штиль 0 16 км ясно +10.2 +8.2 87 +9 +9 1010.8 769.8 +9.6 +25.8
15 12.10 штиль 0 16 км ясно +15.6 +9.9 69 +15 +20 1012.8 770.6
18 12.10 ЮЗ 2 16 км ясно +23.6 +9.3 40 +24 +39 комфорт 1011.1 770.7 +9.2 +23.6
21 12.10 ЮЗ 3 16 км ясно +26.2 +8.8 33 +26 +36 жарко 1004.4 767.9
00 13.10 ЮЗ 3 16 км ясно +23.5 +7.5 36 +24 +24 комфорт 1000.9 767.5 +9.2 +26.7
03 13.10 ЮЗ 3 16 км ясно +23.5 +7.5 36 +24 +24 комфорт 1000.9 767.5 +9.2 +26.7
12 13.10 штиль 0 16 км ясно +8.9 +6.3 84 +8 +8 1007.5 768.5 +8.1 +26.7
15 13.10 штиль 0 16 км ясно +15.0 +8.1 63 +15 +20 1010.6 769.5
18 13.10 З 3 16 км ясно +25.0 +7.5 33 +25 +37 комфорт 1008.1 768.8 +7.2 +25.0
21 13.10 Ю 3 16 км 1/1 1500 м
[Cu hum]
+27.0 +8.3 31 +27 +35 жарко 1003.0 766.9
00 14.10 З 3 16 км 1/1 1000 м
[Cu hum]
+24.0 +8.6 37 +25 +25 комфорт 999.6 766.7 +7.2 +27.8
12 14.10 штиль 0 16 км ясно +11.0 +8.3 83 +10 +10 1006.0 767.4 +10.4 +27.8
15 14.10 штиль 0 16 км ясно +16.6 +10.8 69 +17 +21 1009.0 768.6
18 14.10 ЮЗ 3 16 км ясно +25.5 +10.9 40 +27 +39 жарко 1006.9 768.3 +10.2 +26.2
21 14.10 З 3 16 км 4/3 1410 м
[Cu hum As trans]
+27.6 +9.6 32 +28 +33 жарко 1001.3 766.3
00 15.10 ЮЗ 3 16 км 6/3 1000 м
[Cu hum As trans]
+23.0 +10.8 46 +25 +25 комфорт 998.7 766.6 +10.2 +28.6
12 15.10 штиль 0 16 км ясно +14.8 +12.0 83 +15 +15 1005.6 767.9 +13.7 +28.6
15 15.10 ЮЗ 1 16 км 9/0 1500 м
[Ac und]
+16.0 +12.0 77 +17 +18 1007.5 768.9
18 15.10 З 1 16 км 9/1 1300 м
[Cu hum Ac und]
+22.2 +13.4 57 +25 +31 комфорт 1006.7 768.6 +13.7 +22.2
21 15.10 штиль 0 16 км 9/9 800 м
[St]
+17.4 +15.1 86 +17 +19 1003.2 766.7 0.6
00 16.10 Ю 2 16 км {морось} 8/5 600 м
[Sc diur, vesp As trans]
+18.8 +13.1 69 +20 +20 1001.9 766.4 6
03 16.10 штиль 0 16 км 6/6 630 м
[Cu hum]
+15.2 +13.6 90 +15 +15 1003.8 768.0
06 16.10 В 1 16 км 9/9 630 м
[Sc]
+15.0 +13.5 91 +15 +15 1005.6 768.6 +23.2
12 16.10 Ю 3 16 км 6/0 1500 м
[Ac inh]
+14.4 +12.3 87 +13 +13 1007.3 768.3 +13.5 +23.2
15 16.10 Ю 2 16 км морось 9/0 1500 м
[As op]
+14.2 +13.4 95 +14 +15 1008.9 769.3 693
18 16.10 З 1 16 км осадки на расстоянии {морось} 9/8 1000 м
[Sc As op]
+19.2 +12.9 67 +22 +24 комфорт 1008.1 769.1 0.4
21 16.10 ЮЗ 2 16 км 9/9 1000 м
[Cu Sc]
+22.2 +12.7 55 +25 +26 комфорт 1003.9 766.9
00 17.10 штиль 0 15 км 9/9 300 м
[Frnb]
+14.2 +13.3 94 +14 +14 1004.8 767.5 37
03 17.10 штиль 0 15 км в посл. час дождь 9/9 480 м
[Cu Sc]
+13.8 +13.3 97 +13 +13 1007.3 769.4 2
06 17.10 В 2 14 км 9/9 480 м
[Frnb]
+12.9 +12.6 98 +12 +12 1009.6 770.4 +23.2 2
12 17.10 штиль 0 16 км туман местами 8/8 1000 м
[St]
+12.6 +12.0 96 +12 +12 1010.9 769.7 0.4
15 17.10 ЮВ 2 14 км туман местами 9/9 1300 м
[St]
+14.8 +12.7 87 +14 +15 1012.6 771.0
18 17.10 ЮВ 3 15 км {туман, дождь} 10/10 1000 м
[Sc]
+16.2 +12.9 81 +16 +16 1012.7 771.4 0.0
21 17.10 ЮВ 3 16 км 9/9 930 м
[Sc diur, vesp]
+19.5 +12.1 62 +21 +22 комфорт 1008.0 769.4
00 18.10 ЮВ 3 16 км 9/9 600 м
[Sc]
+16.7 +12.6 77 +16 +16 1007.8 769.4 +11.9 +20.2
03 18.10 В 3 14 км 9/4 480 м
[Cu Sc]
+14.1 +13.0 93 +13 +13 1010.1 771.3
06 18.10 ЮВ 4 14 км 9/9 480 м
[St]
+12.4 +11.8 96 +10 +10 1011.6 772.1 +20.2

 

Местоположение метеостанции Sombrerete (Мексика): широта 23.63 долгота -103.60 высота над уровнем моря 2351 м.

В архиве по умолчанию представлена погода в Sombrerete за последнюю неделю. Архивные данные за месяц целиком и за предыдущие месяцы, начиная с января 2011 года, Вы можете получить, выбрав интересующий диапазон дат из раскрывающегося списка и нажав кнопку "Ввод!".


*Определитесь, кто Вы:
робот инопланетянин человек

Внимание! Время в таблицах - всемирное. Для получения местного времени необходимо прибавить поправку, которая в Sombrerete равна -6 ч.

Смотрите также архив погоды в соседних городах и на ближайших метеорологических станциях:

Погода в Durango (Мексика) (112 км)
Погода в Huejucar (Мексика) (141 км)
Погода в Zacatecas (Мексика) (147 км)
Погода в Colotlan (Мексика) (174 км)
Погода в Torreon (Мексика) (212 км)
Погода в Aguascalientes (Мексика) (237 км)
Погода в Tepic (Мексика) (265 км)
Погода в Tepehuanes (Мексика) (287 км)
Погода в Mazatlan (Мексика) (290 км)
Погода в Lagos De Moreno (Мексика) (307 км)

Пояснения к столбцам:

Ветер - указаны скорость ветра в м/с - средняя за 10 мин, порывы в срок и между сроками (в фигурных скобках) и направление, откуда дует ветер: С - северный, СВ - северо-восточный, В - восточный, ЮВ - юго-восточный, Ю - южный, ЮЗ - юго-западный, З - западный, СЗ - северо-западный.
Видимость - горизонтальная дальность видимости в метрах или километрах. При видимости от 1 до 10 км при отсутствии осадков обычно наблюдается дымка, при ухудшении видимости до 1 км и менее - туман. В сухую погоду видимость может ухудшаться дымом, пылью или мглою.
Явления - указаны атмосферные явления, наблюдавшиеся в срок или в последний час перед сроком; фигурными скобками обозначены явления, наблюдавшиеся между сроками (за 1-3 часа до срока); квадратными скобками обозначены град или гололедные отложения с указанием их диаметра в мм.
Облачность - указаны через наклонную черту общая и нижняя облачность в баллах и высота нижней границы облаков в метрах; квадратными скобками обозначены формы облаков: Ci - перистые, Cs - перисто-слоистые, Cc - перисто-кучевые, Ac - высококучевые, As - высокослоистые, Sc - слоисто-кучевые, Ns - слоисто-дождевые, Cu - кучевые, Cb - кучево-дождевые. Подробнее классификацию облаков см. в Атласе облаков (PDF).
T - Температура воздуха - температура, измеренная на высоте 2 м над землей.
Td - Температура точки росы - температура, при понижении до которой содержащийся в воздухе водяной пар достигнет насыщения.
f - Относительная влажность воздуха - влажноcть воздуха, измеренная на высоте 2 м над землей.
Te - Эффективная температура - температура, которую ощущает одетый по сезону человек в тени. Характеристика душности погоды. При расчете учитывается влияние влажности воздуха и скорости ветра на теплоощущения человека.
Tes - Эффективная температура на солнце - температура, которую ощущает человек, с поправкой на солнечный нагрев. Характеристика знойности погоды. Зависит от высоты солнца над горизонтом, облачности и скорости ветра. Ночью, в пасмурную погоду, а также при ветре 12 м/с и более поправка равна нулю.
P - Атмосферное давление - приведенное к уровню моря атмосферное давление.
Po - Атмосферное давление - измеренное на уровне метеостанции атмосферное давление.
Tmin - Минимальная температура - минимум температуры воздуха на высоте 2 м над землей.
Tmax - Максимальная температура - максимум температуры воздуха на высоте 2 м над землей.
R - Количество осадков - Количество выпавших осадков за период времени, мм. При наведении курсора мыши на число - период времени, за который выпало указанное количество осадков.
R24 - Количество осадков - Количество выпавших осадков за 24 часа, мм.
S - Снежный покров - Высота снежного покрова, см. При наведении курсора мыши на число - состояние снежного покрова и степень покрытия местности в баллах.